Location: Holcomb Observatory
(44.4922°N, 73.1654°W)
Time: 18:33:52
(UTC-04:00)

Cosmos 2360 Rocket - Visible Passes

Search period start: 26 April 2015 00:00
Search period end: 06 May 2015 00:00
Orbit: 833 x 847 km, 71.0° (Epoch: 25 April)

Date Brightness Start Highest point End Pass type
(mag) Time Alt. Az. Time Alt. Az. Time Alt. Az.
26 Apr 4.0 03:04:47 16° SE 03:07:41 24° ESE 03:12:09 10° NE visible
26 Apr 2.5 04:46:34 14° SW 04:51:21 54° WNW 04:56:55 10° NNE visible
27 Apr 4.0 02:49:47 17° SE 02:52:05 22° ESE 02:56:25 10° NE visible
27 Apr 2.4 04:31:33 18° SW 04:35:42 57° WNW 04:41:18 10° NNE visible
28 Apr 4.0 02:34:43 18° SE 02:36:29 21° ESE 02:40:41 10° NE visible
28 Apr 2.3 04:16:29 22° SW 04:20:04 61° WNW 04:25:42 10° NNE visible
29 Apr 4.0 02:19:36 18° ESE 02:20:54 20° E 02:24:56 10° NE visible
29 Apr 2.3 04:01:23 27° SW 04:04:26 64° WNW 04:10:05 10° NNE visible
30 Apr 4.1 02:04:27 18° ESE 02:05:18 18° E 02:09:10 10° ENE visible
30 Apr 2.2 03:46:14 33° SW 03:48:48 68° WNW 03:54:28 10° NNE visible
01 May 4.1 01:49:16 17° ESE 01:49:43 17° E 01:53:24 10° ENE visible
01 May 2.2 03:31:02 39° SW 03:33:10 72° WNW 03:38:51 10° NNE visible
02 May 4.2 01:34:02 16° E 01:34:07 16° E 01:37:35 10° ENE visible
02 May 2.1 03:15:48 46° SW 03:17:31 77° WNW 03:23:14 10° NNE visible
02 May 4.2 04:59:13 10° WNW 05:02:38 16° NW 05:05:52 10° N visible
03 May 4.3 01:18:46 15° E 01:18:46 15° E 01:21:46 10° ENE visible
03 May 2.1 03:00:32 53° SW 03:01:53 81° WNW 03:07:37 10° NNE visible
03 May 4.1 04:43:23 10° W 04:46:56 16° NW 04:50:21 10° N visible
04 May 4.3 01:03:28 14° E 01:03:28 14° E 01:05:55 10° ENE visible
04 May 2.1 02:45:14 61° SSW 02:46:16 86° WNW 02:51:59 10° NNE visible
04 May 4.1 04:27:31 10° W 04:31:15 17° NW 04:34:48 10° N visible
05 May 4.4 00:48:08 13° E 00:48:08 13° E 00:50:01 10° ENE visible
05 May 2.0 02:29:54 69° SSW 02:30:38 90° SE 02:36:22 10° NNE visible
05 May 4.1 04:11:42 10° W 04:15:33 18° NW 04:19:16 10° N visible
